Weather Roundup
Issued by NWS

Home | Current Version | Previous Version | Graphics & Text | Print | Product List | Glossary Off
Versions: 1 2 3 4 5 6 7 8 9 10 11 12 13 14 15 16 17 18 19 20 21 22 23 24 25 26 27 28 29 30 31 32 33 34 35 36 37 38 39 40 41 42 43 44 45 46 47 48 49 50

000
NZUS93 KARX 290459
HRRWXR

CURRENT HOURLY OBSERVATIONS ACROSS
MUCH OF THE UPPER MISSISSIPPI VALLEY
NATIONAL WEATHER SERVICE LA CROSSE WI
1200 AM CDT SUN MAR 29 2015


...SOUTHEAST MINNESOTA...


CITY           SKY/WX    TMP DP  RH WIND       PRES   REMARKS
ROCHESTER      CLOUDY    32  19  58 S20       29.99F WCI  20
ROCHESTER/MAYO FAIR      34  18  53 SE18G30   29.99F WCI  23
WINONA         MOCLDY    36  18  48 S7        30.06F WCI  30
AUSTIN         MOCLDY    34  19  55 S13G20    29.98F WCI  25
ALBERT LEA     PTCLDY    36  21  55 S15G21    29.96F WCI  26
DODGE CENTER   MOCLDY    34  23  64 S22       29.96F WCI  22
PRESTON        MOCLDY    32  18  57 S17G25    30.03F WCI  20
OWATONNA       PTCLDY    36  19  51 S20G26    29.95F WCI  25
FARIBAULT      PTCLDY    36  21  55 S18G25    29.94F WCI  25
$$

...ELSEWHERE IN MINNESOTA...


CITY           SKY/WX    TMP DP  RH WIND       PRES   REMARKS
MINNEAPOLIS    PTCLDY    36  21  54 S16G24    29.92F WCI  26
INTNL FALLS    CLOUDY    38  22  52 S13G20    29.68F WCI  30
DULUTH         MOCLDY    34  18  52 S16       29.84F WCI  24
RED WING       CLOUDY    36  18  48 S14       29.98F WCI  27
REDWOOD FALLS  CLEAR     38  28  67 S18       29.81F WCI  28
MANKATO        CLEAR     36  21  55 S16G28    29.90F WCI  26
WORTHINGTON    CLEAR     37  27  65 S21G31    29.83F WCI  27
FAIRMONT       CLEAR     36  21  55 S21       29.88F WCI  24
$$

...SOUTHWEST WISCONSIN...


CITY           SKY/WX    TMP DP  RH WIND       PRES   REMARKS
LA CROSSE      MOCLDY    37  16  42 S13       30.09F WCI  29
PRAIRIE DU CHI CLEAR     33  13  42 SE6       30.15F WCI  28
BOSCOBEL       CLEAR     34  14  43 S9        30.16F WCI  27
LONE ROCK      NOT AVBL
PLATTEVILLE    CLEAR     29  18  62 SE8       30.17F WCI  21
FORT MC COY    MOCLDY    34  12  40 S13       30.12F WCI  25
VIROQUA        FAIR      32  16  52 S10       30.11F WCI  23
WIS DELLS      NOT AVBL
$$

...ELSEWHERE IN WISCONSIN...


CITY           SKY/WX    TMP DP  RH WIND       PRES   REMARKS
MILWAUKEE      FAIR      26  13  57 S6        30.24F WCI  19
MADISON        CLEAR     31  16  54 S8        30.18F WCI  23
GREEN BAY      PTCLDY    28  21  75 S12       30.16F WCI  18
EAU CLAIRE     NOT AVBL
BLACK RVR FLS  FAIR      33  13  44 S7        30.08F WCI  26
MEDFORD        MOCLDY    31  17  57 S12G17    30.04F WCI  21
WAUSAU         PTCLDY    31  15  52 S10       30.06F WCI  22
WIS RAPIDS     MOCLDY    31  12  45 S9        30.12F WCI  23
MARSHFIELD     MOCLDY    32  14  47 S13       30.07F WCI  22
RICE LAKE      MOCLDY    33  16  49 SE15      29.98F WCI  23
$$

...NORTHEAST IOWA...


CITY           SKY/WX    TMP DP  RH WIND       PRES   REMARKS
DECORAH        MOCLDY    32  18  55 S12G18    30.08F WCI  23
MASON CITY     PTCLDY    33  21  61 S20       30.01F WCI  21
CHARLES CITY   PTCLDY    34  18  51 S17       30.05F WCI  23
OELWEIN        CLOUDY    32  18  55 S17       30.11F WCI  21
$$

...ELSEWHERE IN IOWA...


CITY           SKY/WX    TMP DP  RH WIND       PRES   REMARKS
DES MOINES     CLEAR     38  23  55 S15       30.06F WCI  29
IOWA CITY      CLEAR     31  18  58 SE9       30.19F WCI  23
FORT DODGE     CLEAR     39  23  52 S16G23    29.99F WCI  30
$$

...NORTHERN ILLINOIS...


CITY           SKY/WX    TMP DP  RH WIND       PRES   REMARKS
CHICAGO-OHARE  CLEAR     23  15  71 S8        30.26F WCI  14
CHICAGO-MIDWAY CLEAR     29  12  49 S8        30.28F WCI  21
MOLINE         CLEAR     30  16  56 S10       30.22F WCI  21
ROCKFORD       MOCLDY    29  16  58 S9        30.25F WCI  20
PEORIA         CLEAR     32  19  58 S5        30.27F WCI  27
$$

NOTE: "FAIR" INDICATES FEW OR NO CLOUDS BELOW 12,000 FEET WITH NO
SIGNIFICANT WEATHER AND/OR OBSTRUCTIONS TO VISIBILITY. WIND
SPEEDS ARE IN MILES-PER-HOUR.



USA.gov is the U.S. government's official web portal to all federal, state and local government web resources and services.